Terminal Aerodrome Forecast
Issued by NWS Goodland, KS

Home | Current Version | Previous Version | Text Only | Print | Product List | Glossary Off
Versions: 1 2 3 4 5 6 7 8 9 10 11 12 13 14

000
FTUS43 KGLD 290521
TAFGLD
TAF
KGLD 290521Z 2906/3006 21015KT P6SM FEW100
     FM290700 26012KT P6SM SCT100
     FM290800 34019G27KT P6SM FEW250
     FM291300 35024G34KT P6SM SKC
     FM292100 36012KT P6SM SKC
     FM300100 VRB05KT P6SM SKC=

USA.gov is the U.S. government's official web portal to all federal, state and local government web resources and services.